Location: Altenst�hlen
(53.5567°N, 8.9425°E)
Time: 14:57:00
(UTC+00:00)

STARLINK-59 - Pass Details

Date: 23 October 2019
Orbit: 548 x 551 km, 53.0° (Epoch: 22 November)

Event Time Altitude Azimuth Distance (km) Brightness Sun altitude
Rises 17:13:09 0° 271° (W) 2,719 9.4 -9.9°
Reaches altitude 10° 17:15:23 10° 271° (W) 1,825 7.9 -10.2°
Maximum altitude 17:19:32 84° 185° (S) 559 3.6 -10.8°
Enters shadow 17:22:47 16° 96° (E) 1,469 5.2 -11.3°
